Location: Pianadetto
(44.4000°N, 10.1000°E)
Time: 00:07:50
(UTC+00:00)

Meteor 2-10 Rocket - Pass Details

Date: 26 May 2022
Orbit: 733 x 885 km, 81.2° (Epoch: 02 July)

Event Time Altitude Azimuth Distance (km) Brightness Sun altitude
Rises 00:31:18 0° 348° (NNW) 3,458 7.9 -22.3°
Reaches altitude 10° 00:33:47 10° 348° (NNW) 2,500 7.0 -22.2°
Maximum altitude 00:39:28 85° 262° (W) 842 3.6 -21.8°
Enters shadow 00:41:18 44° 176° (S) 1,125 3.9 -21.7°
